Location: Newark
(13.6797°N, 8.5297°E)
Time: 13:50:46
(UTC+00:00)

Altair - Pass Details

Date: 02 February 2020
Orbit: 1502 x 1682 km, 47.2° (Epoch: 25 February)

Event Time Altitude Azimuth Distance (km) Brightness Sun altitude
Rises 10:47:13 0° 336° (NNW) 4,928 9.8 56.8°
Reaches altitude 10° 10:53:16 10° 3° (N) 3,935 9.5 57.4°
Maximum altitude 10:57:19 13° 27° (NNE) 3,697 9.4 57.7°
Drops below altitude 10° 11:01:21 10° 52° (NE) 3,909 9.6 58.0°
Sets 11:07:14 0° 78° (ENE) 4,863 10.2 58.4°
